Location: ?ern� Novina
(50.6762°N, 14.8696°E)
Time: 12:45:08
(UTC+00:00)

MetOp-B - Pass Details

Date: 03 March 2021
Orbit: 819 x 821 km, 98.7° (Epoch: 17 April)

Event Time Altitude Azimuth Distance (km) Brightness Sun altitude
Exits shadow 19:08:28 46° 66° (ENE) 1,092 4.4 -23.2°
Maximum altitude 19:08:28 46° 66° (ENE) 1,092 4.4 -23.2°
Drops below altitude 10° 19:13:35 10° 355° (N) 2,432 6.9 -23.9°
Sets 19:16:01 0° 349° (N) 3,369 7.7 -24.3°
